COSMOS 2251 DEB, 34884

Orbit data source: Space-Track

COSMOS 2251 DEB, 34884 is space debris in LEO originally from a launch on Wed, 16 Jun 1993 UTC launched from the Plesetsk Missile And Space Complex (PKMTR). The debris from Iridium 33, an American commercial communications satellite, has been tracked extensively since its accidental collision with the defunct Russian satellite Cosmos 2251 in 2009. This event, occurring at high speed in low Earth orbit (LEO), generated thousands of pieces of space debris, significantly increasing the risk of further collisions. The Iridium 33 debris cloud has impacted space traffic management and orbital debris mitigation strategies, making it a subject of ongoing study in space situational awareness.

Loading next visibility...
Identifier
34884, 1993-036ACX
Orbit
LEO
Country
Flag of CISCIS
Related business
Manufacturer
Unknown
Mission
Spacecraft
Bus & Motor
Unknown
Mass
Unknown
Launch date (UTC)
1993-06-16 (33 years ago)
Launch vehicle
Unknown
Launch site
Plesetsk Missile And Space Complex (PKMTR)
Object type
Payload
Rocket body
Debris
Shape & HBR
Unknown shape, 0.1 m
Radar Cross Section
Small (<0.1 m²)

Expand to show TLE details & history
Last TLE update: 13 hours ago

TLE from 13 hours ago
0 COSMOS 2251 DEB
1 34884U 93036ACX 26120.02642322  .00026402  00000-0  22013-2 0  9994
2 34884  74.0113 137.7583 0008068 231.7981 157.3175 14.98480983898718
Epoch: 2026-04-30T00:38Z
TLE epoch observation values (Epoch: 2026-04-30T00:38:02.966Z)
Latitude
27.97294°
Longitude
-81.02796°
Altitude
579.944 km
Speed
7.57 km/s
True Right ascension
09h 45m 51s
True Declination
27° 49' 37"
Sunlit
Object was in daylight at epoch
Visualization orbit readout
Latitude
Unknown
Longitude
Unknown
Altitude
Unknown
Speed
Unknown
Apparent Right ascension
Unknown
Apparent Declination
Unknown
Sunlit
N/A
Visualization observer readout
Local Sidereal Time
21:07:36
Azimuth
Unknown
Elevation
Unknown
Doppler factor
Unknown
Orbital elements
Apogee altitude
574.752 km
Perigee altitude
563.542 km
Semi-major axis
6,947.284 km
Eccentricity
0.00081
Inclination
74.0113°
RAAN
137.7583°
Arg. of periapsis
231.7981°
True anomaly
157.35312°
Mean anomaly
157.3175°
Eccentric anomaly
157.33531°
Mean motion
3.74818 °/min
Orbital period
96.05 mins
BSTAR
0.0022013
Loading maneuver chart data...
Computing Atmospheric mass density...

Documentation

Showing up to 5 results
|